Lexington, KY

7:00 PM EDT on July 27, 2017 (GMT -0400)
Blue Grass

Weather History for KLEX - March, 2015

Change the Weather History Date:

Monday, March 30, 2015

  Actual Average Record
Temperature  
Mean Temperature 52 °F 50 °F  
Max Temperature 61 °F 60 °F 83 °F (1895)
Min Temperature 42 °F 40 °F 17 °F (1964)
Degree Days  
Heating Degree Days 13 15  
Month to date heating degree days 642 591  
Since 1 July heating degree days 4620 4162  
Cooling Degree Days 0 0  
Month to date cooling degree days 0 0  
Year to date cooling degree days 0 0  
Growing Degree Days 2 (Base 50)    
Moisture  
Dew Point 34 °F    
Average Humidity 56    
Maximum Humidity 86    
Minimum Humidity 26    
Precipitation  
Precipitation T in 0.14 in 2.02 in (1940)
Month to date precipitation 7.46 3.94  
Year to date precipitation 12.31 10.34  
Snow  
Snow 0.00 in 0.10 in 0.50 in (1987)
Month to date snowfall 17.1 1.4  
Since 1 July snowfall 40.0 12.7  
Snow Depth 0.00 in    
Sea Level Pressure  
Sea Level Pressure 30.08 in    
Wind  
Wind Speed 9 mph (West)    
Max Wind Speed 20 mph    
Max Gust Speed 29 mph    
Visibility 10 miles    
Events Rain    
T = Trace of Precipitation, MM = Missing Value Source: NWS Daily Summary

Daily Weather History Graph

Daily Weather History Graph

Search for Another Location

Airport or City:

Trip Planner

Search our weather history database for the weather conditions in past years. The results will help you decide how hot, cold, wet, or windy it might be!

Date:

Astronomy

Mar. 30, 2015 Rise Set
Actual Time 7:26 AM EDT 7:59 PM EDT
Civil Twilight 7:00 AM EDT 8:25 PM EDT
Nautical Twilight 6:29 AM EDT 8:57 PM EDT
Astronomical Twilight 5:57 AM EDT 9:29 PM EDT
Moon 3:52 PM EDT (3/30) 4:46 AM EDT (3/30)
Length of Visible Light 13h 25m
Length of Day
12h 32m
Waxing Gibbous, 80% of the Moon is Illuminated
Mar 30
Waxing Gibbous
Apr 4
Full
Apr 11
Last Quarter
Apr 18
New
Apr 25
First Quarter

Hourly Weather History & Observations

Time (EDT) Temp. Windchill Dew Point Humidity Pressure Visibility Wind Dir Wind Speed Gust Speed Precip Events Conditions
12:54 AM 52.0 °F - 37.9 °F 59% 30.04 in 10.0 mi WSW 16.1 mph 31.1 mph 0.00 in Rain Light Rain
1:54 AM 50.0 °F - 41.0 °F 71% 30.03 in 10.0 mi WSW 16.1 mph 26.5 mph 0.00 in Rain Light Rain
2:54 AM 48.9 °F - 43.0 °F 80% 30.01 in 10.0 mi WSW 13.8 mph - 0.00 in   Overcast
3:54 AM 46.9 °F - 42.1 °F 83% 29.99 in 10.0 mi SW 6.9 mph - N/A   Mostly Cloudy
4:54 AM 48.0 °F - 43.0 °F 83% 30.00 in 10.0 mi WSW 10.4 mph - N/A   Overcast
5:54 AM 46.9 °F - 41.0 °F 80% 30.02 in 10.0 mi NW 10.4 mph - N/A   Scattered Clouds
6:54 AM 45.0 °F 40.6 °F 39.0 °F 80% 30.05 in 10.0 mi NW 8.1 mph - N/A   Clear
7:54 AM 43.0 °F 41.3 °F 37.9 °F 82% 30.08 in 10.0 mi NW 3.5 mph - N/A   Clear
8:54 AM 46.9 °F - 39.9 °F 77% 30.11 in 10.0 mi West 3.5 mph - N/A   Clear
9:54 AM 51.1 °F - 36.0 °F 56% 30.12 in 10.0 mi West 6.9 mph - N/A   Clear
10:54 AM 53.1 °F - 35.1 °F 50% 30.14 in 10.0 mi NW 8.1 mph - N/A   Scattered Clouds
11:54 AM 54.0 °F - 30.9 °F 41% 30.15 in 10.0 mi West 5.8 mph 18.4 mph N/A   Scattered Clouds
12:54 PM 57.0 °F - 30.9 °F 37% 30.15 in 10.0 mi WNW 10.4 mph - N/A   Partly Cloudy
1:54 PM 59.0 °F - 30.9 °F 35% 30.14 in 10.0 mi West 16.1 mph 27.6 mph N/A   Scattered Clouds
2:54 PM 59.0 °F - 28.9 °F 32% 30.12 in 10.0 mi WNW 9.2 mph 19.6 mph N/A   Clear
3:54 PM 60.1 °F - 28.0 °F 30% 30.09 in 10.0 mi WNW 12.7 mph 18.4 mph N/A   Clear
4:54 PM 60.8 °F - 26.6 °F 27% 30.08 in 10.0 mi NW 11.5 mph 20.7 mph N/A   Clear
5:54 PM 59.0 °F - 25.0 °F 27% 30.09 in 10.0 mi WNW 10.4 mph 19.6 mph N/A   Clear
6:54 PM 57.9 °F - 27.0 °F 31% 30.08 in 10.0 mi West 9.2 mph - N/A   Clear
7:54 PM 54.0 °F - 27.0 °F 35% 30.08 in 10.0 mi West 4.6 mph - N/A   Clear
8:54 PM 53.1 °F - 27.0 °F 37% 30.09 in 10.0 mi SSW 3.5 mph - N/A   Clear
9:54 PM 48.9 °F - 27.0 °F 43% 30.10 in 10.0 mi South 6.9 mph - N/A   Clear
10:54 PM 48.0 °F - 28.0 °F 46% 30.09 in 10.0 mi South 6.9 mph - N/A   Clear
11:54 PM 46.9 °F - 28.9 °F 50% 30.08 in 10.0 mi South 6.9 mph - N/A   Clear